KUIPER-00261

导读 | 豆包AI

KUIPER-00261是美国亚马逊公司柯伊伯(Project Kuiper)低轨卫星互联网星座的组网卫星,于2025年12月15日发射。该星座计划部署3236颗卫星,旨在为全球提供高速低延迟互联网接入。作为大规模星座部署阶段的组成卫星,它将与其他卫星共同构建覆盖全球的天基通信网络,协同亚马逊云服务拓展太空边缘计算场景,推动天地一体化云通信基础设施建设。

基本信息
目录编号:
67158
目录名称:
KUIPER-00261
国际标识:
2025-301AB
轨道中心:
EARTH
卫星名称:
KUIPER-00261
卫星全名:
KUIPER-00261
卫星状态:
在轨 (已飞行161 天)
发射日期:
2025-12-15 UTC
国别 :
美国 (US)
星等 :
--
轨道信息
数据来源 国际轨道数据
星历时间: 2026-05-24T11:38:50+0800
1天前
查看轨道信息
半长轴: 7007.587km
偏心率: 0.0000727
轨道倾角: 51.901°
近地点辐角 80.431°
升交点赤经 96.961°
平近点角 279.673°
近地点: 628.94km
远地点: 629.96km
周期: 97.300分钟
每日圈数: 14.799603
详细信息
使用方式:
暂无
2D轨道图
3D轨道图
轨道高度分析图
轨道倾角分析图
轨道综合分析图
查看轨道综合分析图